Zurück zum Katalog

COSMOS 2251 DEB

AktivLEO
NORAD 33932·DEBRIS·🇷🇺 Russia

Gestartet Jun 16, 1993 von Plesetsk Cosmodrome

Loading…

Nächste Überflüge (nächste 24 Stunden)

TLE

AktuellSource: Space-Track

Epoche: Sep 14, 2026, 10:37 UTC

1 33932U 93036EM  26257.44299074  .00000712  00000-0  23555-3 0  9995
2 33932  74.0341 167.1220 0036679 180.7533 179.3573 14.39385904919648

Verfolge COSMOS 2251 DEB in Echtzeit mit AllMySat

Download on the App Store